Flag for Germany Weather past 2 weeks in Schwäbisch Hall, Baden-Württemberg, Germany

Now
43 °F

Overcast.


Feels Like: 43 °F
Forecast: 34 / 57 °F
Wind: 1 mph from North

Location: Oehringen


UV Index: 3 (Moderate)

Visibility: 17 mi


Pressure: 29.91 "Hg

Humidity: 63%

Dew point: 31 °F

Location of Schwäbisch HallLocation

Historic Weather in Schwäbisch Hall

°F

Schwäbisch Hall temperature yesterday

Maximum temperature yesterday: 62 °F (at 4:00 PM)
Minimum temperature yesterday: 35 °F (at 7:00 AM)
Average temperature yesterday: 48 °F

Past Weeks' High & Low Weather Summary

 TemperatureHumidityPressure
High74 °F (Apr 3, 5:00 PM)97% (Apr 6, 1:00 AM)30.42 "Hg (Apr 6, 1:00 AM)
Low32 °F (Apr 16, 7:00 AM)24% (Apr 17, 4:00 PM)29.63 "Hg (Apr 3, 5:00 PM)
Average53 °F63%30.06 "Hg
* Reported Apr 3 3:00 AM — Apr 18 3:00 AM, Schwäbisch Hall, Weather by CustomWeather, © 2014

Note: Actual official high and low records may vary slightly from our data, if they occured in-between our weather recording intervals... More about our weather records

Advertising

Historic Weather Conditions — Data for Previous 24 hours

 ConditionsComfort  
Time TempWeatherWind HumidityBarometerVisibility
3:00 AM
Apr 18
43 °FOvercast.1 mph63%29.91 "Hg17 mi
2:00 AM42 °FOvercast.No wind65%29.94 "Hg16 mi
6:00 PM
Apr 17
60 °FScattered clouds.1 mph25%30.04 "Hg34 mi
5:00 PM62 °FPartly sunny.2 mph25%30.06 "Hg40 mi
4:00 PM62 °FScattered clouds.1 mph24%30.09 "Hg22 mi
3:00 PM59 °FSunny.2 mph27%30.13 "Hg22 mi
2:00 PM57 °FSunny.2 mph28%30.17 "Hg25 mi
1:00 PM55 °FOvercast.2 mph32%30.21 "Hg31 mi
12:00 PM54 °FSunny.2 mph35%30.25 "Hg25 mi
11:00 AM51 °FSunny.3 mph38%30.28 "Hg43 mi
10:00 AM49 °FSunny.2 mph46%30.30 "Hg37 mi
9:00 AM45 °FSunny.3 mph50%30.31 "Hg28 mi
8:00 AM40 °FSunny.2 mph69%30.33 "Hg10 mi
7:00 AM35 °FPassing clouds.2 mph78%30.33 "Hg7 mi
6:00 AM38 °FClear.1 mph68%30.32 "Hg22 mi
5:00 AM39 °FClear.1 mph67%30.34 "Hg22 mi
4:00 AM41 °FClear.2 mph62%30.35 "Hg25 mi
3:00 AM39 °FClear.1 mph68%30.37 "Hg19 mi
Weather by CustomWeather, © 2014

See weather overview